Starlink 5805

operational
NORAD ID: 56912 Int'l Des: 2023-083 Owner: SPXS Country: US Constellation: starlink
LEOCIRCULAR

Starlink 5805について

説明を読み込み中...

リアルタイム位置

3D地球を読み込み中...

次回通過

高度履歴

Altitude vs Time

uPlot chart will show altitude changes over time

軌道要素

1 56912U 23083AN 26062.13959017 -.00000272 00000-0 -50403-5 0 9990
2 56912 43.0012 104.4871 0001266 266.8682 93.2016 15.02534626150835
Epoch: Mar 3, 2026 • Age: 20 hours

現在のステータス

高度 562.3 km
速度 7.59 km/s
衛星直下点 39.83°N, 67.85°E
打ち上げ日 Jun 12, 2023
運用期間 2.7 years
タイプ internet

技術仕様

分類 Payload
質量 305.00 kg
乾燥質量 290.00 kg
総質量 305.00 kg
長さ 0.20 m
直径 2.80 m
スパン 9.00 m
形状 Box + pan
製造者 SPXS
バスタイプ Starlink
フェーズステータス In Orbit
所有者/国 SPXS/US

大規模コンステレーション

Loading constellations...